Location: Cagnac
(44.9397°N, 1.8772°E)
Time: 08:20:54
(UTC+00:00)

Daily predictions for brighter satellites

Satellite Brightness Start Highest point End
(mag) Time Altitude Azimuth Time Altitude Azimuth Time Altitude Azimuth
SL-23 DEB 3.8 16:35:44 10° SW 16:39:03 81° SSE 16:43:57 10° ENE
Cosmos 2218 Rocket 4.1 16:34:01 10° N 16:40:06 59° ENE 16:46:10 10° SSE
Cosmos 1812 4.5 16:38:12 10° ESE 16:40:14 14° E 16:42:15 10° NE
Cosmos 1943 Rocket 2.3 16:37:59 10° NNW 16:43:35 85° WSW 16:49:11 10° SSE
Cosmos 1470 Rocket 3.8 16:40:14 10° N 16:44:24 45° ENE 16:48:33 10° SSE
CENTAUR R/B 3.6 16:40:05 10° SSE 16:44:32 23° ESE 16:49:32 10° ENE
H-2A R/B 2.5 16:40:46 10° SSE 16:44:51 59° ENE 16:48:49 10° N
TELKOM 3 3.9 16:43:33 10° WNW 16:46:18 37° NNE 16:48:40 10° E
X-37B 0.6 16:43:31 10° W 16:46:42 88° N 16:49:54 10° E
YAOGAN 6 2.6 16:43:14 10° SSE 16:46:46 56° ENE 16:50:16 10° N
ERS-2 4.0 16:46:47 10° ENE 16:48:37 13° E 16:50:27 10° ESE
Cosmos 2237 Rocket 4.2 16:45:25 10° W 16:49:42 22° NW 16:54:01 10° N
Cosmos 1515 Rocket 4.0 16:46:09 10° SSE 16:50:16 41° E 16:54:26 10° NNE
Cosmos 1602 3.7 16:52:01 10° N 16:55:54 63° E 16:59:43 10° SSE
CZ-4B R/B 3.2 16:51:10 10° SSE 16:56:21 58° ENE 17:01:33 10° N
Cosmos 1943 3.5 16:50:57 10° S 16:56:22 49° ESE 17:01:50 10° NE
Cosmos 1603 3.9 16:51:51 10° S 16:57:19 56° ESE 17:02:47 10° NNE
Cosmos 2369 Rocket 2.2 16:51:57 10° NNW 16:57:40 79° ENE 17:03:18 10° SSE
Cosmos 1238 Rocket 4.3 16:54:54 10° NNE 16:58:33 24° ENE 17:02:45 10° SE
PAYLOAD B 4.3 16:54:07 10° SSE 16:59:41 87° ENE 17:05:16 10° NNW
COSMO-SKYMED 1 4.0 16:59:24 10° NE 17:02:27 18° E 17:05:28 10° SE
Cosmos 1328 Rocket 3.7 17:00:56 10° SSW 17:05:14 79° W 17:09:38 10° N
Cosmos 1680 Rocket 4.3 17:01:21 10° SSE 17:05:58 32° E 17:10:38 10° NE
NOSS 3-2 (C) 4.1 17:01:55 10° S 17:06:46 31° ESE 17:11:34 12° NE
Cosmos 44 Rocket 3.5 17:01:46 10° NNW 17:06:52 55° NE 17:11:58 10° SE
AQUARIUS 4.2 17:02:51 10° SSE 17:07:15 61° ENE 17:11:42 10° N
USA 81 4.2 17:04:17 10° N 17:09:36 84° W 17:14:53 10° S
H-2A R/B 4.3 17:06:55 10° SSW 17:10:34 40° W 17:14:17 10° NNW
H-2A R/B 3.6 17:10:52 13° ENE 17:11:56 14° ENE 17:14:28 10° NNE
CZ-4B R/B 2.2 17:10:43 13° NE 17:13:04 28° E 17:15:53 10° SSE
Cosmos 1933 Rocket 3.5 17:09:41 10° N 17:14:08 65° E 17:18:33 10° SSE
Meteor 1-5 Rocket 4.5 17:09:41 10° N 17:15:21 48° ENE 17:20:49 10° SSE
Cosmos 1538 Rocket 4.3 17:12:02 10° SSW 17:17:24 72° WNW 17:22:48 10° NNE
Meteor 1-4 Rocket 3.1 17:14:08 10° SSW 17:17:38 58° WNW 17:21:07 10° N
BREEZE-M DEB (TANK) 3.8 17:14:06 10° SSW 17:17:45 24° SSE 17:19:40 14° ESE
Meteor 1-11 Rocket 4.4 17:15:02 10° N 17:20:19 34° ENE 17:25:38 10° SE
CZ-2C R/B 3.9 17:17:47 10° ESE 17:21:31 22° ENE 17:25:10 10° NNE
Cosmos 2228 Rocket 3.4 17:19:25 10° SSE 17:23:43 45° E 17:28:01 10° NNE
H-2A R/B 2.4 17:22:41 10° N 17:26:57 68° WNW 17:31:16 10° SSW
Cosmos 2112 Rocket 4.4 17:22:50 10° S 17:27:47 42° ESE 17:32:04 14° NE
Cosmos 1666 3.5 17:24:39 10° NNE 17:28:04 29° ENE 17:31:28 10° SE
Cosmos 2056 Rocket 4.1 17:23:34 10° N 17:28:25 34° ENE 17:33:17 10° SE
Nadezhda 3 Rocket 4.1 17:22:20 10° SSE 17:28:30 54° E 17:34:40 10° NNE
Cosmos 1656 Rocket 3.6 17:23:18 10° NNW 17:28:57 79° ENE 17:34:30 10° SSE
NOSS 3-2 (A) 3.3 17:23:29 10° SSW 17:29:04 75° SE 17:34:34 14° NE
Cosmos 1939 Rocket 3.1 17:27:44 10° SE 17:31:26 42° ENE 17:35:12 10° N
Envisat 4.4 17:28:08 10° SSW 17:32:55 41° W 17:37:44 10° NNW
Cosmos 1500 3.1 17:29:34 10° N 17:33:24 74° E 17:37:14 10° SSE
Cosmos 1821 Rocket 4.0 17:27:29 10° N 17:33:45 63° E 17:40:02 10° SSE
Cosmos 1782 3.9 17:33:45 10° SSW 17:37:34 45° WNW 17:41:25 10° N
USA 281 3.8 17:33:25 10° ESE 17:39:04 32° NE 17:44:46 10° N
USA 215 4.4 17:36:51 18° E 17:39:46 25° SE 17:44:55 10° S
Cosmos 1437 Rocket 3.3 17:37:16 10° SSE 17:40:50 34° E 17:41:51 29° ENE
IRS-1C Rocket 4.2 17:36:39 10° SE 17:41:43 50° ENE 17:46:49 10° N
CZ-4 R/B 2.4 17:42:47 26° NE 17:42:47 26° NE 17:45:40 10° N
USA 276 2.8 17:39:38 10° SW 17:42:41 40° SE 17:43:26 34° ESE
BREEZE-M DEB (TANK) 3.8 17:33:36 10° SW 17:43:45 63° SSE 17:45:38 29° E
Cosmos 1624 Rocket 4.2 17:39:14 10° N 17:44:19 45° ENE 17:49:20 10° SE
Helios 1A Rocket 4.4 17:47:27 21° NNE 17:47:27 21° NNE 17:49:12 10° N
SL-16 R/B 4.3 17:41:37 10° W 17:45:54 22° NW 17:50:12 10° N
Cosmos 158 Rocket 3.8 17:42:04 10° SSW 17:47:01 88° WNW 17:51:23 13° NNE
Cosmos 1869 Rocket 3.5 17:45:17 10° N 17:49:45 63° E 17:54:09 10° SSE
SKYMED 2 3.6 17:47:36 17° NNE 17:50:49 57° E 17:55:05 10° S
Cosmos 371 Rocket 3.3 17:46:02 10° NNW 17:50:52 58° ENE 17:55:39 10° SE
USA 238 DEB 3.6 17:44:20 10° SW 17:50:55 89° SE 17:56:08 19° NE
USA 238 3.6 17:44:25 10° SW 17:51:01 88° ESE 17:56:13 19° NE
Okean O Rocket 2.7 17:47:28 10° S 17:51:40 47° W 17:55:57 10° NNW
SMAP 4.5 17:49:31 10° SSW 17:53:54 41° W 17:58:19 10° NNW
Meteor 1-27 Rocket 3.8 17:50:32 10° SSE 17:55:50 49° E 18:00:15 15° NNE
SL-8 R/B 4.2 17:52:31 10° SW 17:57:04 46° SSE 17:58:34 34° E
Cosmos 1689 Rocket 4.0 18:01:37 19° SSE 18:01:37 19° SSE 18:02:38 10° S
Okean-O 2.8 17:56:25 10° SE 18:00:37 45° ENE 18:04:51 10° N
SL-24 DEB 4.3 17:57:46 10° N 18:02:31 81° W 18:07:10 10° S
Lacrosse 5 rocket 3.4 18:01:28 10° NNW 18:03:07 13° N 18:03:20 13° N
Meteor 1-10 Rocket 4.2 17:58:21 10° S 18:03:58 88° W 18:09:34 10° N
CZ-4 R/B 4.3 18:01:28 10° SSE 18:05:34 72° ENE 18:09:41 10° N
PSLV R/B 3.9 18:06:03 51° ENE 18:06:27 54° E 18:10:25 10° S
Lacrosse 4 Rocket 1.3 18:02:24 10° SSW 18:06:28 85° WNW 18:07:52 40° NNE
ISS -3.8 18:06:34 10° WNW 18:09:56 81° SSW 18:10:01 80° S
DEBRIS 3.6 17:58:44 10° WNW 18:10:52 76° NNE 18:12:15 45° E
ATLAS 3B R/B 3.5 18:07:23 10° SSE 18:12:26 28° ESE 18:12:26 28° ESE
Cosmos 2084 3.6 18:08:32 10° SW 18:12:48 71° NW 18:14:09 42° NNE
USA 267 3.9 18:11:20 31° NE 18:13:23 38° NNE 18:19:19 10° NW
Cosmos 1812 3.9 18:11:57 10° SSW 18:15:36 42° WNW 18:18:59 12° N
CSL-04 Rocket 4.4 18:17:21 33° NNE 18:17:21 33° NNE 18:20:50 10° N
YAOGAN 1 3.4 18:18:51 34° NNE 18:18:51 34° NNE 18:21:29 10° N
Cosmos 1605 Rocket 4.0 18:14:57 10° N 18:20:55 54° ENE 18:26:53 10° SSE
ERS-2 3.1 18:20:27 23° N 18:22:23 45° WNW 18:25:53 10° SW
X-37B 1.6 18:20:10 10° W 18:22:35 46° WSW 18:22:35 46° WSW
Cosmos 1461 3.8 18:20:57 10° SW 18:25:28 53° NW 18:27:06 36° N
Cosmos 1339 Rocket 4.4 18:21:27 10° S 18:27:37 65° E 18:32:11 19° NNE
SL-24 R/B 4.2 18:27:12 44° NNW 18:28:02 57° WNW 18:31:37 10° SSW
Cosmos 332 Rocket 3.6 18:23:12 10° NNW 18:28:03 85° ENE 18:29:58 37° SSE
ARGOS 4.4 18:34:46 27° N 18:34:46 27° N 18:37:18 10° N
CENTAUR R/B 2.7 18:28:26 10° SW 18:34:20 70° NW 18:37:34 33° NNE
COSMO-SKYMED 1 3.6 18:36:11 20° N 18:38:50 45° WNW 18:42:58 10° SW
Cosmos 1707 Rocket 3.8 18:40:27 10° SSW 18:44:49 65° W 18:44:53 65° WNW
CZ-4B R/B 4.1 18:43:51 13° NW 18:45:06 16° WNW 18:47:07 10° WSW
H-2A R/B 2.1 18:51:29 64° NNW 18:51:29 64° NNW 18:55:47 10° NNW
Gblst 52 Del rocket 4.2 18:46:45 10° WSW 18:53:06 77° NNW 18:53:30 73° NNE
MOS 1 Rocket 3.8 18:52:15 42° N 18:54:05 71° WNW 18:59:20 10° SSW
Cosmos 304 Rocket 4.2 18:50:36 10° NNW 18:54:39 58° NW 18:54:39 58° NW
NOSS 3-2 (C) 4.0 18:51:42 10° WSW 18:57:16 51° NW 18:59:03 40° N
CZ-2C R/B 3.9 18:56:27 10° S 19:01:09 45° W 19:05:44 10° NNW
CZ-4 R/B 3.8 19:18:48 20° WNW 19:18:48 20° WNW 19:20:37 10° NW
USA 281 3.6 19:19:59 30° S 19:23:13 59° WSW 19:29:44 10° NNW
USA 215 3.3 19:24:13 70° SW 19:24:13 70° SW 19:29:55 10° SW
USA 267 4.3 19:58:41 38° NW 19:58:41 38° NW 20:02:28 10° NW
ATLAS 3B R/B 4.0 19:56:25 10° SW 19:59:44 32° WSW 19:59:44 32° WSW
